星链-30754 (STARLINK-30754 )

导读

STARLINK-30754是美国太空探索技术公司Starlink卫星互联网项目的成员,于2023年10月22日发射升空。它属于Starlink Gen2系列,旨在为全球提供低延迟、高速率的宽带互联网服务,填补偏远地区网络覆盖空白,目前在近地轨道运行,参与构建新一代低轨卫星星座。

基本信息
目录编号:
58124
目录名称:
STARLINK-30754
国际标识:
2023-162G
轨道中心:
EARTH
卫星名称:
星链-30754
卫星全名:
星链-30754 (STARLINK-30754 )
卫星状态:
在轨 (已飞行1055 天)
发射日期:
2023-10-22 UTC
国别 :
美国 (US)
星等 :
--
该卫星已列入 空间交会检测服务 Space Conjunction Data Service (SCDS) ,当前飞行风险评估等级: 无高风险
轨道信息
数据来源 国际轨道数据 AOE轨道数据
星历时间 2026-09-11T10:21:27+0800
14小时前
查看轨道信息
2026-09-09T23:00:00+0800
2天前
查看轨道信息
半长轴 6861.208km 6861.2km
偏心率 0.0001217 0.0001182
轨道倾角 43.001° 42.999°
近地点辐角 275.305° 243.627°
升交点赤经 165.329° 173.649°
平近点角 84.766° 285.266°
近地点 482.235km 482.252km
远地点 483.907km 483.874km
周期 94.267分钟 94.267分钟
每日圈数 15.27573 15.275756
详细信息
固有亮度:
5
最大亮度:
0.3
卫星平台:
Starlink v2.0 mini
覆盖范围:
全球
运营商:
太空探索技术公司
运营商所在国:
美国
制造商(研发单位):
太空探索技术公司
制造商所在国:
美国
使用方式:
暂无
卫星简介
星链(Starlink)计划是由太空探索技术公司(SpaceX)提出的一个巨型低轨卫星互联网星座项目,计划在2019年至2024年间在太空搭建由约1.2万颗卫星组成的“星链”网络,其中1584颗将部署在地球上空550千米处的近地轨道,并从2020年开始工作。该卫星仍在工作。
2D轨道图
3D轨道图
轨道高度分析图
轨道倾角分析图
轨道综合分析图
查看轨道综合分析图
交会数据列表
事件ID 空间交会对象 最接近时刻(TCA) 交会距离 交会风险概率(CRP) 交会风险指数(CRI) 操作
CDM_260913-115105-812406-705421
2026-09-13T
11:51:34+0000
0.785 km
远距离
3.831385E-5 中风险 0.67
CDM_260913-031305-812406-705421
2026-09-13T
03:13:44+0000
1.173 km
极远距离
9.798256E-6 低风险 0.55
CDM_260913-013905-812406-705421
2026-09-13T
01:39:35+0000
1.549 km
极远距离
3.878996E-6 低风险 0.47
CDM_260912-045605-303505-812421
2026-09-12T
04:56:50+0000
2.415 km
极远距离
1.574753E-6 低风险 0.39
CDM_260906-013705-812405-912125
2026-09-06T
01:37:09+0000
2.971 km
极远距离
1.327097E-6 低风险 0.37
CDM_260913-132505-812406-705421
2026-09-13T
13:25:43+0000
2.987 km
极远距离
9.262844E-7 极低风险 0.34
与全量物体交会距离演化趋势
与全量物体交会风险概率演化趋势